This demonstration page uses our WeatherBlox Daily Observations layout. Learn more.

Left ArrowRight Arrow

Hourly Observations for March 14, 2020

Temp ( °F °C ) Dew Point ( °F °C ) Humidity (%) Winds ( mph kmh ) Pressure ( in mb ) Visibility ( mi km ) Precip ( " mm )
12:53 am 00:53 Cloudy 54 12.2 43 6.1 67 67 S 14 22 29.69 1005 10 16 0.00 0.00
1:53 am 01:53 Cloudy 53 11.7 41 5 64 64 S 15 24 29.71 1006 10 16 0.00 0.00
2:53 am 02:53 Cloudy 52 11.1 42 5.6 69 69 S 16 26 29.73 1007 10 16 0.00 0.00
3:53 am 03:53 Cloudy with Light Rain 48 8.9 38 3.3 68 68 SSW 21 33 29.76 1008 9 14 0.00 0.00
4:53 am 04:53 Cloudy 46 7.8 35 1.7 66 66 SSW 7 11 29.77 1008 10 16 0.01 0.25
5:53 am 05:53 Mostly Clear 46 7.8 36 2.2 68 68 SW 7 11 29.78 1009 10 16 0.00 0.00
6:53 am 06:53 Clear 45 7.2 38 3.3 77 77 S 7 11 29.80 1009 10 16 0.00 0.00
7:53 am 07:53 Cloudy 47 8.3 41 5 80 80 S 12 19 29.81 1010 10 16 0.00 0.00
8:53 am 08:53 Cloudy 49 9.4 41 5 74 74 S 14 22 29.83 1010 10 16 0.00 0.00
9:36 am 09:36 Mostly Cloudy 50 10 41 5 71 71 S 17 28 29.86 1011 10 16 0.00 0.00
9:53 am 09:53 Mostly Cloudy 49 9.4 40 4.4 71 71 S 15 24 29.85 1011 10 16 0.00 0.00
10:15 am 10:15 Cloudy 51 10.6 40 4.4 66 66 S 14 22 29.87 1011 10 16 0.00 0.00
10:53 am 10:53 Cloudy 52 11.1 39 3.9 61 61 S 13 20 29.85 1011 10 16 0.00 0.00
11:53 am 11:53 Cloudy with Light Rain 50 10 38 3.3 63 63 SW 7 11 29.83 1010 10 16 0.02 0.51
12:13 pm 12:13 Cloudy with Thunderstorms 48 8.9 39 3.9 71 71 NW 6 9 29.85 1011 10 16 0.01 0.25
12:28 pm 12:28 Cloudy with Rain 46 7.8 38 3.3 73 73 W 14 22 29.85 1011 3 5 0.03 0.76
12:32 pm 12:32 Cloudy with Thunderstorms 46 7.8 38 3.3 73 73 WSW 10 17 29.86 1011 3 4 0.06 1.52
12:45 pm 12:45 Cloudy with Heavy Rain 41 5 33 0.6 73 73 WSW 3 6 29.87 1011 10 16 0.20 5.08
12:53 pm 12:53 Cloudy with Light Rain 41 5 34 1.1 76 76 Calm 29.85 1011 10 16 0.26 6.60
1:53 pm 13:53 Mostly Cloudy 51 10.6 40 4.4 66 66 ESE 8 13 29.82 1010 10 16 0.00 0.00
2:53 pm 14:53 Cloudy 52 11.1 37 2.8 57 57 SE 10 17 29.80 1009 10 16 0.00 0.00
3:53 pm 15:53 Cloudy 55 12.8 29 -1.7 37 37 SW 16 26 29.80 1009 10 16 0.00 0.00
4:53 pm 16:53 Cloudy 53 11.7 30 -1.1 41 41 WSW 9 15 29.80 1009 10 16 0.00 0.00
5:53 pm 17:53 Cloudy 52 11.1 30 -1.1 43 43 SSW 7 11 29.81 1009 10 16 0.00 0.00
6:53 pm 18:53 Cloudy 50 10 35 1.7 57 57 E 5 7 29.80 1009 10 16 0.00 0.00
7:53 pm 19:53 Cloudy 49 9.4 35 1.7 59 59 S 9 15 29.81 1009 10 16 0.00 0.00
8:53 pm 20:53 Partly Cloudy 49 9.4 31 -0.6 50 50 SW 10 17 29.83 1010 10 16 0.00 0.00
9:53 pm 21:53 Cloudy 47 8.3 32 0 56 56 S 9 15 29.83 1010 10 16 0.00 0.00
10:53 pm 22:53 Cloudy 47 8.3 32 0 56 56 SSE 9 15 29.84 1010 10 16 0.00 0.00
11:53 pm 23:53 Mostly Clear 45 7.2 34 1.1 66 66 SSE 15 24 29.85 1011 10 16 0.00 0.00

Powered by AerisWeather